ROMMA est une association bénévole à but non lucratif. Votre soutien est indispensable : ADHERER à ROMMA ou FAIRE un DON

Voiron - (38, Isère)

Voironnais (300 m)   Longitude: 05° 35' E   Latitude: 45° 23' N Station partenaire n°109
 

Détail journalier du     <<     >>

Température Precipitation Humidité Pression Vent Dir Rafale Dir. rafale Ensol.
Heure (°C) (mm) (%) (hPa) (km/h) (km/h) (min)
01:00 5.506010302ONO8ONO0
02:00 5.106110302NO8NNO0
03:00 4.206510304NO16NO0
04:00 3.806810303NO13NO0
05:00 3.406910302ONO8ONO0
06:00 2.607310302ONO10NNO0
07:00 2.107410312NO6NO0
08:00 3.607110312ONO6NO30
09:00 5.906410324S10SSE60
10:00 6.406310326S18S60
11:00 8.005810328S16SSE60
12:00 9.705310328SE18SSE60
13:00 11.804210319N24NO60
14:00 13.1040103111N26N60
15:00 13.9036103011N29N60
16:00 14.1034103012NNO27N60
17:00 14.4032103011N26NE60
18:00 14.1032103011N27NNO60
19:00 12.903410306N16N0
20:00 10.804210315N15NNO0
21:00 8.905210312N6N0
22:00 9.204810313NE18ENE0
23:00 8.305110316ENE23ENE0
minuit 7.205610312O8OSO0

Graphique du 20-03-2019

 

Serveur OMMA